Time,TemperatureF,DewpointF,PressureIn,WindDirection,WindDirectionDegrees,WindSpeedMPH,WindSpeedGustMPH,Humidity,HourlyPrecipIn,Conditions,Clouds,dailyrainin,SoftwareType,DateUTC
2013-02-05 00:11:00,30.7,30.2,29.72,West,270,0.0,-999.0,98,-99.99,,,0.00,Acu-Link.com,2013-02-05 05:11:00,
2013-02-05 00:26:00,30.7,30.2,29.71,SSW,202,0.0,-999.0,98,-99.99,,,0.00,Acu-Link.com,2013-02-05 05:26:00,
2013-02-05 00:41:00,30.0,29.5,29.71,WNW,292,0.0,-999.0,98,-99.99,,,0.00,Acu-Link.com,2013-02-05 05:41:00,
2013-02-05 00:57:00,29.3,28.8,29.70,SW,225,0.0,-999.0,98,-99.99,,,0.00,Acu-Link.com,2013-02-05 05:57:00,
2013-02-05 01:12:00,28.4,27.9,29.69,West,270,0.0,-999.0,98,-99.99,,,0.00,Acu-Link.com,2013-02-05 06:12:00,
2013-02-05 01:27:00,28.6,28.1,29.69,West,270,0.0,-999.0,98,-99.99,,,0.00,Acu-Link.com,2013-02-05 06:27:00,
2013-02-05 01:43:00,29.7,29.2,29.69,West,270,0.0,-999.0,98,-99.99,,,0.00,Acu-Link.com,2013-02-05 06:43:00,
2013-02-05 01:58:00,30.6,30.1,29.68,West,270,0.0,-999.0,98,-99.99,,,0.00,Acu-Link.com,2013-02-05 06:58:00,
2013-02-05 02:13:00,30.2,29.7,29.68,West,270,0.0,-999.0,98,-99.99,,,0.00,Acu-Link.com,2013-02-05 07:13:00,
2013-02-05 02:28:00,30.2,29.7,29.69,West,270,0.0,-999.0,98,-99.99,,,0.00,Acu-Link.com,2013-02-05 07:28:00,
2013-02-05 02:43:00,30.4,29.9,29.68,WNW,292,0.0,-999.0,98,-99.99,,,0.00,Acu-Link.com,2013-02-05 07:43:00,
2013-02-05 02:59:00,30.6,30.1,29.68,WNW,292,0.0,-999.0,98,-99.99,,,0.00,Acu-Link.com,2013-02-05 07:59:00,
2013-02-05 03:14:00,30.4,29.9,29.68,West,270,0.0,-999.0,98,-99.99,,,0.00,Acu-Link.com,2013-02-05 08:14:00,
2013-02-05 03:29:00,29.8,29.3,29.69,SE,135,0.0,-999.0,98,-99.99,,,0.00,Acu-Link.com,2013-02-05 08:29:00,
2013-02-05 03:45:00,29.1,28.6,29.67,South,180,0.0,-999.0,98,-99.99,,,0.00,Acu-Link.com,2013-02-05 08:45:00,
2013-02-05 04:00:00,29.1,28.6,29.67,West,270,0.0,-999.0,98,-99.99,,,0.00,Acu-Link.com,2013-02-05 09:00:00,
2013-02-05 04:15:00,29.1,28.6,29.68,SW,225,0.0,-999.0,98,-99.99,,,0.00,Acu-Link.com,2013-02-05 09:15:00,
2013-02-05 04:31:00,29.1,28.6,29.68,SW,225,0.0,-999.0,98,-99.99,,,0.00,Acu-Link.com,2013-02-05 09:31:00,
2013-02-05 04:46:00,28.9,28.4,29.67,SSW,202,0.0,-999.0,98,-99.99,,,0.00,Acu-Link.com,2013-02-05 09:46:00,
2013-02-05 05:01:00,28.9,28.4,29.67,SSW,202,0.0,-999.0,98,-99.99,,,0.00,Acu-Link.com,2013-02-05 10:01:00,
2013-02-05 05:16:00,29.1,28.6,29.67,South,180,0.0,-999.0,98,-99.99,,,0.00,Acu-Link.com,2013-02-05 10:16:00,
2013-02-05 05:31:00,29.1,28.6,29.68,SE,135,1.7,-999.0,98,-99.99,,,0.00,Acu-Link.com,2013-02-05 10:31:00,
2013-02-05 05:47:00,29.1,28.6,29.68,ESE,112,0.0,-999.0,98,-99.99,,,0.00,Acu-Link.com,2013-02-05 10:47:00,
2013-02-05 06:02:00,29.5,29.0,29.68,South,180,0.0,-999.0,98,-99.99,,,0.00,Acu-Link.com,2013-02-05 11:02:00,
2013-02-05 06:17:00,29.8,29.3,29.69,WNW,292,0.0,-999.0,98,-99.99,,,0.00,Acu-Link.com,2013-02-05 11:17:00,
2013-02-05 06:33:00,30.2,29.7,29.69,SSW,202,2.2,-999.0,98,-99.99,,,0.00,Acu-Link.com,2013-02-05 11:33:00,
2013-02-05 06:48:00,30.4,29.9,29.68,North,0,0.0,-999.0,98,-99.99,,,0.00,Acu-Link.com,2013-02-05 11:48:00,
2013-02-05 07:03:00,30.4,29.9,29.69,West,270,0.0,-999.0,98,-99.99,,,0.00,Acu-Link.com,2013-02-05 12:03:00,
2013-02-05 07:19:00,30.4,29.9,29.68,NNE,22,0.0,-999.0,98,-99.99,,,0.00,Acu-Link.com,2013-02-05 12:19:00,
2013-02-05 07:34:00,30.7,30.2,29.68,ESE,112,1.1,-999.0,98,-99.99,,,0.00,Acu-Link.com,2013-02-05 12:34:00,
2013-02-05 07:49:00,30.7,30.2,29.69,ENE,67,0.0,-999.0,98,-99.99,,,0.00,Acu-Link.com,2013-02-05 12:49:00,
2013-02-05 08:05:00,31.3,30.8,29.70,NW,315,1.7,-999.0,98,-99.99,,,0.00,Acu-Link.com,2013-02-05 13:05:00,
2013-02-05 08:20:00,33.3,32.8,29.70,WSW,247,0.0,-999.0,98,-99.99,,,0.00,Acu-Link.com,2013-02-05 13:20:00,
2013-02-05 08:35:00,35.6,35.1,29.70,SW,225,0.0,-999.0,98,-99.99,,,0.00,Acu-Link.com,2013-02-05 13:35:00,
2013-02-05 08:51:00,37.6,37.1,29.70,ENE,67,0.0,-999.0,98,-99.99,,,0.00,Acu-Link.com,2013-02-05 13:51:00,
2013-02-05 09:06:00,39.6,39.1,29.71,NW,315,1.1,-999.0,98,-99.99,,,0.00,Acu-Link.com,2013-02-05 14:06:00,
2013-02-05 09:21:00,40.1,39.6,29.71,North,0,0.0,-999.0,98,-99.99,,,0.00,Acu-Link.com,2013-02-05 14:21:00,
2013-02-05 09:37:00,41.2,40.7,29.72,NE,45,1.1,-999.0,98,-99.99,,,0.00,Acu-Link.com,2013-02-05 14:37:00,
2013-02-05 09:52:00,41.4,40.6,29.71,ESE,112,1.1,-999.0,97,-99.99,,,0.00,Acu-Link.com,2013-02-05 14:52:00,
2013-02-05 10:07:00,41.5,39.6,29.71,SSE,157,0.0,-999.0,93,-99.99,,,0.00,Acu-Link.com,2013-02-05 15:07:00,
2013-02-05 10:22:00,43.0,40.6,29.72,South,180,0.0,-999.0,91,-99.99,,,0.00,Acu-Link.com,2013-02-05 15:22:00,
2013-02-05 10:38:00,44.4,42.8,29.72,ESE,112,2.7,-999.0,94,-99.99,,,0.00,Acu-Link.com,2013-02-05 15:38:00,
2013-02-05 10:53:00,46.0,44.4,29.72,West,270,0.0,-999.0,94,-99.99,,,0.00,Acu-Link.com,2013-02-05 15:53:00,
2013-02-05 11:08:00,48.2,44.2,29.71,South,180,0.0,-999.0,86,-99.99,,,0.00,Acu-Link.com,2013-02-05 16:08:00,
2013-02-05 11:24:00,51.3,46.6,29.71,South,180,2.7,-999.0,84,-99.99,,,0.00,Acu-Link.com,2013-02-05 16:24:00,
2013-02-05 11:40:00,53.4,49.3,29.71,WSW,247,2.7,-999.0,86,-99.99,,,0.00,Acu-Link.com,2013-02-05 16:40:00,
2013-02-05 11:55:00,55.9,49.1,29.70,NNW,337,4.2,-999.0,78,-99.99,,,0.00,Acu-Link.com,2013-02-05 16:55:00,
2013-02-05 12:10:00,56.5,50.4,29.70,SSW,202,5.3,-999.0,80,-99.99,,,0.00,Acu-Link.com,2013-02-05 17:10:00,
2013-02-05 12:26:00,56.5,49.7,29.69,SSW,202,6.3,-999.0,78,-99.99,,,0.00,Acu-Link.com,2013-02-05 17:26:00,
2013-02-05 12:41:00,54.5,47.8,29.68,SE,135,3.7,-999.0,78,-99.99,,,0.00,Acu-Link.com,2013-02-05 17:41:00,
2013-02-05 12:56:00,56.5,49.0,29.68,SSW,202,3.2,-999.0,76,-99.99,,,0.00,Acu-Link.com,2013-02-05 17:56:00,
2013-02-05 13:11:00,54.7,48.3,29.67,SSE,157,2.2,-999.0,79,-99.99,,,0.00,Acu-Link.com,2013-02-05 18:11:00,
2013-02-05 13:27:00,54.1,49.1,29.67,SSW,202,8.9,-999.0,83,-99.99,,,0.00,Acu-Link.com,2013-02-05 18:27:00,
2013-02-05 13:42:00,55.2,49.5,29.67,SSW,202,5.8,-999.0,81,-99.99,,,0.00,Acu-Link.com,2013-02-05 18:42:00,
2013-02-05 13:59:00,55.4,49.7,29.67,SW,225,4.7,-999.0,81,-99.99,,,0.00,Acu-Link.com,2013-02-05 18:59:00,
2013-02-05 14:14:00,55.0,49.9,29.67,WSW,247,5.8,-999.0,83,-99.99,,,0.00,Acu-Link.com,2013-02-05 19:14:00,
2013-02-05 14:29:00,55.4,49.7,29.67,NNW,337,4.2,-999.0,81,-99.99,,,0.00,Acu-Link.com,2013-02-05 19:29:00,
2013-02-05 14:44:00,54.7,48.7,29.67,SSW,202,7.3,-999.0,80,-99.99,,,0.00,Acu-Link.com,2013-02-05 19:44:00,
2013-02-05 14:59:00,54.5,48.5,29.68,SSW,202,5.8,-999.0,80,-99.99,,,0.00,Acu-Link.com,2013-02-05 19:59:00,
2013-02-05 15:15:00,53.4,48.7,29.68,SW,225,5.3,-999.0,84,-99.99,,,0.00,Acu-Link.com,2013-02-05 20:15:00,
2013-02-05 15:30:00,53.6,49.2,29.69,WSW,247,9.9,-999.0,85,-99.99,,,0.00,Acu-Link.com,2013-02-05 20:30:00,
2013-02-05 15:45:00,52.2,47.5,29.69,West,270,4.7,-999.0,84,-99.99,,,0.00,Acu-Link.com,2013-02-05 20:45:00,
2013-02-05 16:01:00,51.4,46.7,29.69,SW,225,7.8,-999.0,84,-99.99,,,0.00,Acu-Link.com,2013-02-05 21:01:00,
2013-02-05 16:16:00,51.3,46.6,29.69,SW,225,3.2,-999.0,84,-99.99,,,0.00,Acu-Link.com,2013-02-05 21:16:00,
2013-02-05 16:31:00,50.7,46.4,29.68,SSW,202,3.2,-999.0,85,-99.99,,,0.00,Acu-Link.com,2013-02-05 21:31:00,
2013-02-05 16:47:00,53.8,48.4,29.68,WSW,247,7.8,-999.0,82,-99.99,,,0.00,Acu-Link.com,2013-02-05 21:47:00,
2013-02-05 17:02:00,51.6,46.6,29.69,SSW,202,5.3,-999.0,83,-99.99,,,0.00,Acu-Link.com,2013-02-05 22:02:00,
2013-02-05 17:17:00,50.4,46.1,29.69,WSW,247,4.7,-999.0,85,-99.99,,,0.00,Acu-Link.com,2013-02-05 22:17:00,
2013-02-05 17:32:00,49.6,45.0,29.69,South,180,1.1,-999.0,84,-99.99,,,0.00,Acu-Link.com,2013-02-05 22:32:00,
2013-02-05 17:47:00,49.1,45.4,29.69,NNE,22,0.0,-999.0,87,-99.99,,,0.00,Acu-Link.com,2013-02-05 22:47:00,
2013-02-05 18:03:00,47.8,44.1,29.68,NW,315,1.7,-999.0,87,-99.99,,,0.00,Acu-Link.com,2013-02-05 23:03:00,
2013-02-05 18:18:00,46.8,43.7,29.70,NNW,337,0.0,-999.0,89,-99.99,,,0.00,Acu-Link.com,2013-02-05 23:18:00,
2013-02-05 18:33:00,45.0,43.4,29.70,SW,225,2.7,-999.0,94,-99.99,,,0.00,Acu-Link.com,2013-02-05 23:33:00,
2013-02-05 18:48:00,44.6,43.0,29.69,North,0,0.0,-999.0,94,-99.99,,,0.00,Acu-Link.com,2013-02-05 23:48:00,
2013-02-05 19:04:00,43.7,42.6,29.69,NNE,22,0.0,-999.0,96,-99.99,,,0.00,Acu-Link.com,2013-02-06 00:04:00,
2013-02-05 19:19:00,42.8,42.3,29.70,NE,45,1.7,-999.0,98,-99.99,,,0.00,Acu-Link.com,2013-02-06 00:19:00,
2013-02-05 19:34:00,42.8,42.3,29.70,NNW,337,0.0,-999.0,98,-99.99,,,0.00,Acu-Link.com,2013-02-06 00:34:00,
2013-02-05 19:50:00,42.1,41.6,29.69,NE,45,0.0,-999.0,98,-99.99,,,0.00,Acu-Link.com,2013-02-06 00:50:00,
2013-02-05 20:05:00,41.5,41.0,29.70,ENE,67,0.0,-999.0,98,-99.99,,,0.00,Acu-Link.com,2013-02-06 01:05:00,
2013-02-05 20:20:00,41.4,40.9,29.70,SSE,157,1.7,-999.0,98,-99.99,,,0.00,Acu-Link.com,2013-02-06 01:20:00,
2013-02-05 20:35:00,40.8,40.3,29.69,South,180,0.0,-999.0,98,-99.99,,,0.00,Acu-Link.com,2013-02-06 01:35:00,
2013-02-05 20:51:00,40.3,39.8,29.69,East,90,1.7,-999.0,98,-99.99,,,0.00,Acu-Link.com,2013-02-06 01:51:00,
2013-02-05 21:06:00,40.1,39.6,29.70,ESE,112,0.0,-999.0,98,-99.99,,,0.00,Acu-Link.com,2013-02-06 02:06:00,
2013-02-05 21:22:00,40.3,39.8,29.70,SSW,202,0.0,-999.0,98,-99.99,,,0.00,Acu-Link.com,2013-02-06 02:22:00,
2013-02-05 21:37:00,39.7,39.2,29.70,East,90,0.0,-999.0,98,-99.99,,,0.00,Acu-Link.com,2013-02-06 02:37:00,
2013-02-05 21:52:00,39.2,38.7,29.70,East,90,0.0,-999.0,98,-99.99,,,0.00,Acu-Link.com,2013-02-06 02:52:00,
2013-02-05 22:08:00,39.0,38.5,29.70,NW,315,0.0,-999.0,98,-99.99,,,0.00,Acu-Link.com,2013-02-06 03:08:00,
2013-02-05 22:23:00,38.5,38.0,29.71,SSW,202,0.0,-999.0,98,-99.99,,,0.00,Acu-Link.com,2013-02-06 03:23:00,
2013-02-05 22:38:00,37.0,36.5,29.71,SW,225,0.0,-999.0,98,-99.99,,,0.00,Acu-Link.com,2013-02-06 03:38:00,
2013-02-05 22:53:00,36.3,35.8,29.71,SSE,157,0.0,-999.0,98,-99.99,,,0.00,Acu-Link.com,2013-02-06 03:53:00,
2013-02-05 23:09:00,36.5,36.0,29.71,ESE,112,0.0,-999.0,98,-99.99,,,0.00,Acu-Link.com,2013-02-06 04:09:00,
2013-02-05 23:24:00,36.7,36.2,29.70,East,90,1.1,-999.0,98,-99.99,,,0.00,Acu-Link.com,2013-02-06 04:24:00,
2013-02-05 23:39:00,36.3,35.8,29.70,NE,45,0.0,-999.0,98,-99.99,,,0.00,Acu-Link.com,2013-02-06 04:39:00,
2013-02-05 23:55:00,35.2,34.7,29.70,ESE,112,0.0,-999.0,98,-99.99,,,0.00,Acu-Link.com,2013-02-06 04:55:00,